Regional Weather Roundup
Issued by NWS

Home | Current Version | Previous Version | Text Only | Print | Product List | Glossary Off
Versions: 1 2 3 4 5 6 7 8 9 10 11 12 13 14 15 16 17 18 19 20 21 22 23 24 25 26 27 28 29 30 31 32 33 34 35 36 37 38 39 40 41 42 43 44 45 46 47 48 49 50

000
ASUS43 KFSD 250610
RWRSD

WEATHER ROUNDUP FOR SOUTH DAKOTA
NATIONAL WEATHER SERVICE SIOUX FALLS SD
100 AM CDT SAT OCT 25 2014

NOTE: "FAIR" INDICATES FEW OR NO CLOUDS BELOW 12,000 FEET WITH NO
SIGNIFICANT WEATHER AND/OR OBSTRUCTIONS TO VISIBILITY.


SDZ001>005-009-010-012>017-250700-
NORTHWEST AND NORTH CENTRAL SOUTH DAKOTA

CITY           SKY/WX    TMP DP  RH WIND       PRES   REMARKS
BUFFALO          N/A     51  31  46 SW3       30.06S
FAITH            N/A     51  35  54 NW9       30.11R
MOBRIDGE       CLOUDY    55  38  52 CALM      30.05F
$$

SDZ012>016-024>037-041>051-057-063-072>074-250700-
SOUTHWEST AND SOUTH CENTRAL SOUTH DAKOTA

CITY           SKY/WX    TMP DP  RH WIND       PRES   REMARKS
RAPID CTY ARPT CLEAR     45  33  63 NW10      30.14R
PIERRE         MOCLDY    55  37  50 N7        30.08R
CUSTER         CLEAR     39  33  79 N3        30.19S
ELLSWORTH AFB  CLEAR     45  33  62 NW6       30.14R
PHILIP         PTCLDY    47  36  65 W5        30.11R
PINE RIDGE     CLEAR     38  33  82 NE3       30.13S
SPEARFISH      FAIR      41  32  70 S9        30.17R
WINNER         FAIR      49  33  54 W6        30.08R
$$

SDZ004>011-016>023-039-040-250700-
NORTHEAST SOUTH DAKOTA

CITY           SKY/WX    TMP DP  RH WIND       PRES   REMARKS
ABERDEEN       MOCLDY    57  37  47 NW10      30.05R
WATERTOWN      MOCLDY    54  42  64 NW6       30.03R
SISSETON         N/A     59  33  37 NW14      30.00R
$$

SDZ017-020-022-023-036>040-048>070-250700-
SOUTHEAST SOUTH DAKOTA

CITY           SKY/WX    TMP DP  RH WIND       PRES   REMARKS
SIOUX FALLS    PTCLDY    52  45  77 CALM      30.01S
HURON          MOCLDY    51  39  63 CALM      30.05R
CHAMBERLAIN    CLOUDY    56  38  51 N6        30.07R
MITCHELL       MOCLDY    50  39  66 NW8       30.05R
YANKTON        CLEAR     48  43  81 CALM      30.01F
$$

ABBREVIATIONS USED IN REMARKS
   TC - TEMPERATURE IN CELSIUS
  WCI - WIND CHILL INDEX
   HX - HEAT INDEX
  VSB - VISIBILITY




USA.gov is the U.S. government's official web portal to all federal, state and local government web resources and services.